Find Starlink 34931

NORAD ID: 65398 Int'l Des: 2025-191 Owner: SPXS Country: US Constellation: starlink operational
LEOCIRCULARRETROGRADESSO

当前视图

正在加载3D地球...

About Starlink 34931

Starlink 34931 (NORAD 65398) is a starlink constellation satellite (v2 mini) launched Aug 30, 2025 by SPXS of US. It operates in LEO, CIRCULAR, RETROGRADE, SSO orbit with a mass of 575.00 kg.

关于 Starlink 34931

正在加载描述...

即将过境

Passes for default location (London). Set your location on the main map for personalized predictions.

高度历史

Loading altitude history...

两行轨道根数

1 65398U 25191V 26195.60572899 .00002943 00000-0 20782-3 0 9998
2 65398 97.2832 64.5236 0002557 87.6016 272.5505 15.05649864 49363
Epoch: Jul 14, 2026 • Age: 5 hours

当前状态

高度 561.3 km
远地点 / 近地点 N/A
速度 7.59 km/s
星下点 82.60°N, 94.21°E
发射日期 Aug 30, 2025
运行时间 0.8 years
类型 internet

技术详情

分类 Payload
质量 575.00 kg
干质量 530.00 kg
总质量 575.00 kg
长度 0.30 m
直径 4.10 m
跨度 29.00 m
形状 Box + pan
制造商 SPXS
平台类型 Starlink V2MO
阶段状态 In Orbit
所有者/国家 SPXS/US

Most Searched